This demonstration page uses our WeatherBlox Daily Observations layout. Learn more.

Left ArrowRight Arrow

39.01783, -85.05884

Hourly Observations for July 20, 2018

Temp ( °F °C ) Dew Point ( °F °C ) Humidity (%) Winds ( mph kmh ) Pressure ( in mb ) Visibility ( mi km ) Precip ( " mm )
12:52 am 00:52 Mostly Clear 73 22.8 55 12.8 53 53 S 5 7 29.91 1013 10 16 0.00 0.00
1:52 am 01:52 Cloudy 71 21.7 55 12.8 57 57 SE 3 6 29.89 1012 10 16 0.00 0.00
2:52 am 02:52 Mostly Cloudy 72 22.2 56 13.3 57 57 Calm 29.88 1012 10 16 0.00 0.00
3:52 am 03:52 Cloudy 73 22.8 58 14.4 59 59 SSE 7 11 29.87 1012 10 16 0.00 0.00
4:52 am 04:52 Cloudy 72 22.2 60 15.6 66 66 S 3 6 29.85 1011 10 16 0.00 0.00
5:30 am 05:30 Cloudy with Thunderstorms 71 21.7 64 17.8 79 79 SSW 8 13 29.88 1012 7 11 0.01 0.25
5:52 am 05:52 Cloudy with Thunderstorms 69 20.6 62 16.7 78 78 WSW 8 13 29.89 1012 10 16 0.08 2.03
6:42 am 06:42 Cloudy with Light Rain 68 20 67 19.4 96 96 Calm 29.88 1012 7 11 0.18 4.57
6:52 am 06:52 Cloudy 68 20 67 19.4 96 96 Calm 29.87 1012 10 16 0.18 4.57
7:29 am 07:29 Cloudy with Rain 66 19 N/A N/A SE 5 7 29.88 1012 2 3 0.01 0.25
7:39 am 07:39 Cloudy with Light Rain 66 19 N/A N/A Calm 29.91 1013 1 1 0.15 3.81
7:52 am 07:52 Cloudy with Light Rain 67 19.4 64 17.8 91 91 S 7 11 29.91 1013 3 4 0.17 4.32
8:52 am 08:52 Cloudy with Light Rain 69 20.6 69 20.6 100 100 SSE 8 13 29.89 1012 3 4 0.09 2.29
8:56 am 08:56 Cloudy with Light Rain 69 20.6 68 20 96 96 S 6 9 29.91 1013 6 10 0.00 0.03
9:52 am 09:52 Cloudy 70 21.1 68 20 93 93 S 10 17 29.89 1012 10 16 0.01 0.25
10:25 am 10:25 Cloudy with Nearby Thunderstorms 70 21.1 68 20 93 93 S 9 15 29.91 1013 10 16 0.00 0.03
10:52 am 10:52 Cloudy with Nearby Thunderstorms 70 21.1 68 20 93 93 S 12 19 29.90 1012 10 16 0.04 1.02
10:55 am 10:55 Cloudy 70 21.1 68 20 93 93 S 14 22 29.88 1012 10 16 0.00 0.00
11:16 am 11:16 Cloudy 69 20.6 68 20 96 96 S 16 26 29.91 1013 10 16 0.00 0.00
11:23 am 11:23 Cloudy with Nearby Thunderstorms 69 20.6 67 19.4 93 93 S 14 22 29.88 1012 10 16 0.00 0.00
11:36 am 11:36 Cloudy with Thunderstorms 70 21.1 68 20 93 93 SSE 13 20 29.88 1012 10 16 0.00 0.03
11:52 am 11:52 Cloudy with Thunderstorms 71 21.7 68 20 90 90 S 14 22 29.88 1012 10 16 0.00 0.03
12:05 pm 12:05 Cloudy 71 21.7 68 20 90 90 S 13 20 29.88 1012 10 16 0.00 0.00
12:52 pm 12:52 Cloudy 72 22.2 67 19.4 84 84 SSE 16 26 29.87 1012 10 16 0.00 0.00
1:52 pm 13:52 Mostly Cloudy 76 24.4 67 19.4 74 74 S 21 33 29.83 1010 10 16 0.00 0.00
2:34 pm 14:34 Mostly Cloudy with Nearby Thunderstorms 75 23.9 67 19.4 76 76 S 21 33 29.80 1009 10 16 0.00 0.00
2:41 pm 14:41 Mostly Cloudy with Thunderstorms 73 22.8 63 17.2 71 71 WNW 38 61 29.88 1012 10 16 0.00 0.00
2:46 pm 14:46 Windy with Storms Likely 68 20 61 16 78 78 W 32 52 29.91 1013 1 1 0.00 0.03
2:52 pm 14:52 Cloudy with Strong Thunderstorms 63 17.2 61 16.1 93 93 WNW 25 41 29.91 1013 0 0 0.24 6.10
2:56 pm 14:56 Cloudy with Strong Thunderstorms 63 17.2 61 16.1 93 93 W 10 17 29.88 1012 2 3 0.21 5.33
3:05 pm 15:05 Cloudy with Thunderstorms 63 17.2 61 16.1 93 93 WSW 18 30 29.91 1013 2 3 0.24 6.10
3:29 pm 15:29 Cloudy with Thunderstorms 64 17.8 61 16.1 90 90 SSW 8 13 29.83 1010 4 6 0.41 10.41
3:52 pm 15:52 Cloudy with Thunderstorms 64 17.8 61 16.1 90 90 S 13 20 29.80 1009 8 13 0.41 10.41
4:20 pm 16:20 Cloudy with Light Rain 65 18.3 63 17.2 93 93 S 6 9 29.83 1010 10 16 0.00 0.03
4:52 pm 16:52 Cloudy with Light Rain 66 18.9 65 18.3 96 96 SSE 15 24 29.78 1008 9 14 0.00 0.03
5:52 pm 17:52 Cloudy 67 19.4 65 18.3 93 93 SSE 10 17 29.78 1008 10 16 0.01 0.25
6:28 pm 18:28 Cloudy with Nearby Thunderstorms 66 18.9 65 18.3 96 96 ESE 9 15 29.77 1008 7 11 0.01 0.25
6:36 pm 18:36 Cloudy with Thunderstorms 66 18.9 65 18.3 96 96 VRB 7 11 29.80 1009 10 16 0.01 0.25
6:42 pm 18:42 Cloudy with Thunderstorms 66 18.9 65 18.3 96 96 WNW 5 7 29.83 1010 6 10 0.01 0.25
6:48 pm 18:48 Cloudy with Strong Thunderstorms 64 18 64 18 100 100 SE 13 20 29.80 1009 2 3 0.05 1.27
6:52 pm 18:52 Cloudy with Thunderstorms 65 18.3 65 18.3 100 100 SSE 16 26 29.81 1009 2 3 0.08 2.03
6:59 pm 18:59 Cloudy with Thunderstorms 65 18.3 64 17.8 97 97 SE 16 26 29.77 1008 1 1 0.07 1.78
7:02 pm 19:02 Cloudy with Strong Thunderstorms 65 18.3 64 17.8 97 97 ESE 18 30 29.77 1008 4 6 0.25 6.35
7:07 pm 19:07 Cloudy with Thunderstorms 65 18.3 64 17.8 97 97 E 12 19 29.77 1008 4 6 0.25 6.35
7:16 pm 19:16 Cloudy with Thunderstorms 65 18.3 64 17.8 97 97 ESE 9 15 29.77 1008 7 11 0.26 6.60
7:52 pm 19:52 Cloudy with Thunderstorms 65 18.3 64 17.8 97 97 S 10 17 29.83 1010 10 16 0.26 6.60
8:37 pm 20:37 Mostly Cloudy with Rain 65 18.3 64 17.8 97 97 SE 10 17 29.77 1008 8 13 0.06 1.52
8:52 pm 20:52 Cloudy with Light Rain 65 18.3 65 18.3 100 100 SE 8 13 29.79 1009 10 16 0.08 2.03
8:58 pm 20:58 Cloudy with Nearby Thunderstorms 65 18.3 65 18.3 100 100 SE 8 13 29.80 1009 9 14 0.00 0.03
9:02 pm 21:02 Cloudy with Rain 65 18.3 65 18.3 100 100 ESE 7 11 29.80 1009 8 13 0.01 0.25
9:18 pm 21:18 Cloudy with Thunderstorms 65 18.3 65 18.3 100 100 ESE 7 11 29.80 1009 10 16 0.04 1.02
9:47 pm 21:47 Cloudy with Light Rain 66 19 64 18 94 94 SE 8 13 29.77 1008 10 16 0.04 1.02
9:52 pm 21:52 Cloudy with Light Rain 66 18.9 65 18.3 96 96 SSE 9 15 29.78 1009 10 16 0.04 1.02
10:52 pm 22:52 Cloudy with Light Rain 65 18.3 64 17.8 97 97 SSE 12 19 29.80 1009 10 16 0.01 0.25
11:52 pm 23:52 Cloudy 65 18.3 64 17.8 97 97 SSE 12 19 29.80 1009 10 16 0.00 0.03

Powered by AerisWeather